This demonstration page uses our WeatherBlox Daily Observations layout. Learn more.

Left ArrowRight Arrow

Hourly Observations for June 28, 2018

Temp ( °F °C ) Dew Point ( °F °C ) Humidity (%) Winds ( mph kmh ) Pressure ( in mb ) Visibility ( mi km ) Precip ( " mm )
12:53 am 00:53 Clear 75 23.9 72 22.2 90 90 E 7 11 29.81 1010 10 16 0.00 0.00
1:53 am 01:53 Clear 75 23.9 72 22.2 90 90 E 8 13 29.80 1009 10 16 0.00 0.00
2:53 am 02:53 Clear 75 23.9 72 22.2 90 90 E 7 11 29.78 1009 10 16 0.00 0.00
3:53 am 03:53 Clear 75 23.9 72 22.2 90 90 E 8 13 29.78 1009 10 16 0.00 0.00
4:53 am 04:53 Clear 74 23.3 72 22.2 94 94 ESE 8 13 29.77 1008 9 14 0.00 0.00
5:13 am 05:13 Mostly Clear 73 22.8 72 22.2 96 96 ESE 8 13 29.74 1007 8 13 0.00 0.00
5:28 am 05:28 Mostly Cloudy 73 22.8 72 22.2 96 96 ESE 10 17 29.74 1007 8 13 0.00 0.00
5:43 am 05:43 Cloudy 73 22.8 72 22.2 96 96 ESE 8 13 29.74 1007 7 11 0.00 0.00
5:53 am 05:53 Cloudy with Mist and Fog 73 22.8 72 22.2 96 96 ESE 10 17 29.75 1008 6 10 0.00 0.00
6:30 am 06:30 Cloudy with Mist and Fog 73 23 72 22 94 94 ESE 7 11 29.74 1007 2 3 0.00 0.00
6:53 am 06:53 Mostly Cloudy with Fog 72 22.2 72 22.2 100 100 SE 8 13 29.75 1007 0 0 0.00 0.00
7:45 am 07:45 Cloudy with Mist and Fog 73 22.8 73 22.8 100 100 SE 8 13 29.71 1006 3 4 0.00 0.00
7:53 am 07:53 Mostly Cloudy with Mist and Fog 73 22.8 72 22.2 96 96 SSE 9 15 29.74 1007 5 8 0.00 0.00
8:11 am 08:11 Partly Cloudy 73 22.8 72 22.2 96 96 SSE 10 17 29.71 1006 7 11 0.00 0.00
8:53 am 08:53 Sunny 76 24.4 72 22.2 88 88 SSE 7 11 29.75 1007 10 16 0.00 0.00
9:21 am 09:21 Partly Cloudy with Mist and Fog 75 24 73 23 94 94 E 8 13 29.74 1007 5 8 0.00 0.00
9:53 am 09:53 Sunny 78 25.6 73 22.8 85 85 ENE 18 30 29.77 1008 8 13 0.00 0.00
10:53 am 10:53 Mostly Sunny 81 27.2 73 22.8 77 77 E 14 22 29.76 1008 10 16 0.00 0.00
11:53 am 11:53 Mostly Sunny 83 28.3 74 23.3 74 74 ESE 10 17 29.78 1008 10 16 0.00 0.00
12:32 pm 12:32 Mostly Cloudy 82 28 73 23 74 74 E 13 20 29.74 1007 10 16 0.00 0.00
12:44 pm 12:44 Partly Cloudy 84 29 75 24 74 74 ESE 12 19 29.71 1006 10 16 0.00 0.00
12:53 pm 12:53 Mostly Sunny 84 28.9 76 24.4 77 77 ENE 14 22 29.78 1009 10 16 0.00 0.00
1:53 pm 13:53 Sunny 86 30 77 25 75 75 E 17 28 29.75 1008 10 16 0.00 0.00
2:53 pm 14:53 Sunny 89 31.7 75 23.9 63 63 ESE 14 22 29.71 1006 10 16 0.00 0.00
3:53 pm 15:53 Sunny 91 32.8 75 23.9 59 59 ESE 17 28 29.69 1006 10 16 0.00 0.00
4:53 pm 16:53 Sunny 93 33.9 75 23.9 56 56 SE 20 31 29.66 1005 10 16 0.00 0.00
5:53 pm 17:53 Sunny 93 33.9 76 24.4 58 58 SE 17 28 29.65 1004 10 16 0.00 0.00
6:53 pm 18:53 Sunny 94 34.4 75 23.9 54 54 SSE 8 13 29.64 1004 10 16 0.00 0.00
7:53 pm 19:53 Sunny 91 32.8 72 22.2 54 54 S 10 17 29.65 1004 10 16 0.00 0.00
8:53 pm 20:53 Sunny 87 30.6 65 18.3 48 48 S 9 15 29.65 1004 10 16 0.00 0.00
9:53 pm 21:53 Clear 83 28.3 65 18.3 55 55 S 9 15 29.66 1005 10 16 0.00 0.00
10:53 pm 22:53 Clear 82 27.8 63 17.2 53 53 S 9 15 29.67 1005 10 16 0.00 0.00
11:53 pm 23:53 Clear 82 27.8 64 17.8 55 55 S 12 19 29.67 1005 10 16 0.00 0.00

Powered by AerisWeather